Location: Fauquembergues
(50.6005°N, 2.0987°E)
Time: 04:40:29
(UTC+00:00)

NOSS 2-1 (C) - Pass Details

Date: 14 July 2020
Orbit: 443 x 1759 km, 63.3° (Epoch: 29 July)

Event Time Altitude Azimuth Distance (km) Brightness Sun altitude
Rises 00:24:11 0° 315° (NW) 2,935 7.6 -17.5°
Reaches altitude 10° 00:26:11 10° 316° (NW) 2,157 6.9 -17.5°
Maximum altitude 00:31:06 89° 231° (SW) 872 4.2 -17.4°
Drops below altitude 10° 00:38:05 10° 139° (SE) 3,009 6.7 -17.2°
Enters shadow 00:39:09 - 139° (SE) 3,405 7.0 -17.2°
